DMSP 5D-2 F13 DEB, 40448

Orbit data source: Space-Track

DMSP 5D-2 F13 DEB, 40448 is space debris in SSO originally from a launch on Fri, 24 Mar 1995 UTC launched from the Air Force Western Test Range (AFWTR). Debris objects in space refer to the collection of defunct objects orbiting the Earth. Examples of debris include non-operational satellites, rocket bodies, and fragments generated from explosions, collisions, or faulty payload assembly.

Loading next visibility...
Identifier
40448, 1995-015BA
Orbit
SSO
Country
Flag of USUS
Related business
Manufacturer
Unknown
Mission
Spacecraft
Bus & Motor
Unknown
Mass
Unknown
Launch date (UTC)
1995-03-24 (31 years ago)
Launch vehicle
Unknown
Launch site
Air Force Western Test Range (AFWTR)
Object type
Payload
Rocket body
Debris
Shape & HBR
Unknown shape, 0.1 m
Radar Cross Section
Small (<0.1 m²)

Expand to show TLE details & history
Last TLE update: 11 hours ago

TLE from 11 hours ago
0 DMSP 5D-2 F13 DEB
1 40448U 95015BA  26133.23060391  .00002228  00000-0  94276-3 0  9994
2 40448  98.9742 139.1623 0039015 144.4130 215.9662 14.26127683576549
Epoch: 2026-05-13T05:32Z
TLE epoch observation values (Epoch: 2026-05-13T05:32:04.177Z)
Latitude
-0.00007°
Longitude
-174.8487°
Altitude
830.342 km
Speed
7.426 km/s
True Right ascension
09h 16m 38s
True Declination
0° 00' 00"
Sunlit
Object was in daylight at epoch
Visualization orbit readout
Latitude
Unknown
Longitude
Unknown
Altitude
Unknown
Speed
Unknown
Apparent Right ascension
Unknown
Apparent Declination
Unknown
Sunlit
N/A
Visualization observer readout
Local Sidereal Time
01:15:21
Azimuth
Unknown
Elevation
Unknown
Doppler factor
Unknown
Orbital elements
Apogee altitude
829.88 km
Perigee altitude
773.854 km
Semi-major axis
7,180.004 km
Eccentricity
0.0039
Inclination
98.9742°
RAAN
139.1623°
Arg. of periapsis
144.413°
True anomaly
215.70466°
Mean anomaly
215.9662°
Eccentric anomaly
215.83533°
Mean motion
3.56744 °/min
Orbital period
100.91 mins
BSTAR
0.00094276

Documentation

Showing up to 5 results
|